Date String (YYYY-MM-DD hh:mm:ss) UTC,Instrument flags,Ambient pressure (hPa),Sample flow (lpm),Bypass flow (lpm),Sample temperature (°C),Ambient temperature (°C),ASC tube jacket temperature (°C),LED temperature (°C),Box temperature (°C),Sample RH (%),Span deviation,Mass concentration (μg/m³),Mass concentration (μg/m³),Mass concentration (μg/m³)
DateTimeUTC,F1_M11,P_M11,Q1_M11,Q2_M11,T1_M11,T2_M11,T3_M11,T4_M11,T5_M11,U1_M11,ZSPAN_M11,X0_M11,X2_M11,X1_M11
2021-09-02 01:00:00,,0821.7,5.00,0.00,29.3,28.5,00.0,38.2,31.2,25.0,0001.9,0022.81,0017.42,0016.56
2021-09-02 01:01:00,,0821.7,5.00,0.00,29.3,28.6,00.0,38.2,31.2,25.0,0001.8,0022.71,0017.41,0016.58
2021-09-02 01:02:00,,0821.7,5.01,0.00,29.4,28.6,00.0,38.3,31.2,25.0,0001.9,0022.73,0017.41,0016.60
2021-09-02 01:03:00,,0821.6,5.01,0.00,29.4,27.8,00.0,38.3,31.1,25.0,0002.1,0022.54,0017.41,0016.62
2021-09-02 01:04:00,,0821.6,5.00,0.00,29.2,26.0,00.0,38.3,30.6,25.2,0002.0,0022.35,0017.38,0016.60
2021-09-02 01:05:00,,0821.5,5.00,0.00,29.1,25.4,00.0,38.2,30.4,25.4,0002.0,0022.38,0017.33,0016.57
2021-09-02 01:06:00,,0821.5,5.01,0.00,29.0,25.8,00.0,38.2,30.5,25.6,0001.9,0022.09,0017.29,0016.55
2021-09-02 01:07:00,,0821.5,5.00,0.00,29.0,26.3,00.0,38.2,30.6,25.8,0002.0,0021.70,0017.25,0016.54
2021-09-02 01:08:00,,0821.5,5.00,0.00,29.0,26.7,00.0,38.1,30.7,25.5,0001.8,0021.49,0017.21,0016.53
2021-09-02 01:09:00,,0821.5,4.99,0.00,29.0,27.1,00.0,38.1,30.8,25.6,0001.8,0021.60,0017.20,0016.51
2021-09-02 01:10:00,,0821.5,5.00,0.00,29.0,27.5,00.0,38.1,30.8,25.5,0001.7,0021.72,0017.17,0016.47
2021-09-02 01:11:00,,0821.5,4.99,0.00,29.1,27.7,00.0,38.1,30.9,25.9,0001.7,0021.76,0017.13,0016.41
2021-09-02 01:12:00,,0821.6,5.00,0.00,29.1,28.0,00.0,38.2,31.0,25.9,0001.7,0021.66,0017.07,0016.35
2021-09-02 01:13:00,,0821.7,5.02,0.00,29.2,28.1,00.0,38.2,31.0,25.9,0001.8,0021.85,0017.06,0016.33
2021-09-02 01:14:00,,0821.7,4.99,0.00,29.2,28.3,00.0,38.2,31.1,25.9,0001.7,0021.98,0017.02,0016.29
2021-09-02 01:15:00,,0821.7,5.01,0.00,29.3,28.4,00.0,38.2,31.2,25.5,0001.8,0022.05,0016.98,0016.26
2021-09-02 01:16:00,,0821.8,5.00,0.00,29.3,28.5,00.0,38.3,31.2,25.4,0001.9,0022.00,0016.95,0016.26
2021-09-02 01:17:00,,0821.8,5.00,0.00,29.4,28.6,00.0,38.3,31.3,25.1,0001.8,0022.74,0016.98,0016.28
2021-09-02 01:18:00,,0821.8,5.01,0.00,29.4,27.6,00.0,38.3,31.0,24.8,0001.9,0023.01,0016.96,0016.27
2021-09-02 01:19:00,,0821.8,5.00,0.00,29.2,25.7,00.0,38.3,30.5,25.0,0001.8,0023.42,0016.99,0016.28
2021-09-02 01:20:00,,0821.8,4.99,0.00,29.1,25.3,00.0,38.2,30.3,25.2,0001.8,0023.22,0016.93,0016.25
2021-09-02 01:21:00,,0821.8,5.01,0.00,29.0,25.7,00.0,38.2,30.4,25.2,0001.6,0023.83,0016.92,0016.23
2021-09-02 01:22:00,,0821.8,5.01,0.00,29.0,26.2,00.0,38.2,30.5,25.3,0001.7,0023.78,0016.89,0016.22
2021-09-02 01:23:00,,0821.7,5.00,0.00,29.0,26.7,00.0,38.1,30.6,25.1,0001.7,0024.10,0016.87,0016.19
2021-09-02 01:24:00,,0821.7,5.00,0.00,29.0,27.1,00.0,38.1,30.7,25.1,0001.5,0023.73,0016.80,0016.10
2021-09-02 01:25:00,,0821.7,5.00,0.00,29.0,27.4,00.0,38.1,30.8,25.0,0001.4,0023.36,0016.74,0016.05
2021-09-02 01:26:00,,0821.8,5.01,0.00,29.1,27.7,00.0,38.1,30.9,24.9,0001.4,0023.21,0016.67,0015.99
2021-09-02 01:27:00,,0821.8,5.00,0.00,29.1,27.9,00.0,38.2,30.9,24.9,0001.3,0022.96,0016.60,0015.93
2021-09-02 01:28:00,,0821.8,4.99,0.00,29.2,28.1,00.0,38.2,31.0,24.7,0001.3,0022.06,0016.52,0015.84
2021-09-02 01:29:00,,0821.8,5.01,0.00,29.2,28.3,00.0,38.2,31.1,24.6,0001.2,0021.65,0016.40,0015.72
2021-09-02 01:30:00,,0821.9,4.99,0.00,29.3,28.4,00.0,38.2,31.1,24.6,0001.2,0021.21,0016.26,0015.61
2021-09-02 01:31:00,,0822.2,4.99,0.00,29.3,28.5,00.0,38.2,31.2,24.6,0001.1,0021.23,0016.22,0015.54
2021-09-02 01:32:00,,0821.9,5.00,0.00,29.4,28.6,00.0,38.3,31.2,24.6,0001.2,0020.38,0016.14,0015.49
2021-09-02 01:33:00,,0822.0,5.02,0.00,29.4,28.3,00.0,38.3,31.2,24.7,0001.1,0021.14,0016.15,0015.45
2021-09-02 01:34:00,,0821.9,5.00,0.00,29.3,26.7,00.0,38.3,30.8,24.8,0001.1,0020.94,0016.15,0015.45
2021-09-02 01:35:00,,0822.0,5.01,0.00,29.2,26.3,00.0,38.3,30.7,25.0,0001.2,0020.95,0016.16,0015.46
2021-09-02 01:36:00,,0822.0,5.00,0.00,29.2,26.6,00.0,38.3,30.7,25.2,0001.3,0021.12,0016.15,0015.45
2021-09-02 01:37:00,,0822.0,4.99,0.00,29.1,27.0,00.0,38.3,30.8,25.3,0001.3,0021.52,0016.17,0015.46
2021-09-02 01:38:00,,0822.0,5.00,0.00,29.1,27.3,00.0,38.2,30.9,25.4,0001.2,0021.99,0016.21,0015.46
2021-09-02 01:39:00,,0822.1,5.00,0.00,29.2,27.6,00.0,38.2,31.0,25.4,0001.2,0022.11,0016.24,0015.45
2021-09-02 01:40:00,,0822.1,5.00,0.00,29.2,27.9,00.0,38.3,31.0,25.3,0001.2,0022.68,0016.32,0015.47
2021-09-02 01:41:00,,0822.1,5.01,0.00,29.3,28.1,00.0,38.3,31.1,25.2,0001.3,0023.35,0016.38,0015.51
2021-09-02 01:42:00,,0822.1,5.02,0.00,29.3,28.3,00.0,38.3,31.1,25.3,0001.3,0023.49,0016.37,0015.51
2021-09-02 01:43:00,,0822.1,4.99,0.00,29.3,28.4,00.0,38.3,31.2,25.1,0001.4,0023.39,0016.34,0015.48
2021-09-02 01:44:00,,0822.1,5.01,0.00,29.4,28.5,00.0,38.3,31.3,25.0,0001.4,0022.70,0016.27,0015.46
2021-09-02 01:45:00,,0822.1,5.00,0.00,29.4,28.5,00.0,38.4,31.3,24.9,0001.3,0022.75,0016.21,0015.42
2021-09-02 01:46:00,,0822.1,5.00,0.00,29.4,27.1,00.0,38.4,30.9,25.0,0001.4,0022.61,0016.14,0015.36
2021-09-02 01:47:00,,0822.1,5.00,0.00,29.2,25.5,00.0,38.3,30.5,25.3,0001.3,0022.36,0016.09,0015.32
2021-09-02 01:48:00,,0822.2,5.02,0.00,29.1,25.4,00.0,38.3,30.5,25.4,0001.3,0022.00,0016.08,0015.28
2021-09-02 01:49:00,,0822.3,5.00,0.00,29.0,25.9,00.0,38.3,30.6,25.5,0001.4,0021.71,0016.04,0015.21
2021-09-02 01:50:00,,0822.3,5.00,0.00,29.0,26.4,00.0,38.2,30.6,25.6,0001.4,0021.64,0015.97,0015.18
2021-09-02 01:51:00,,0822.4,4.99,0.00,29.0,26.8,00.0,38.2,30.7,25.7,0001.4,0021.15,0015.91,0015.14
2021-09-02 01:52:00,,0822.4,5.01,0.00,29.0,27.2,00.0,38.2,30.8,25.6,0001.5,0020.82,0015.87,0015.10
2021-09-02 01:53:00,,0822.4,4.98,0.00,29.1,27.5,00.0,38.2,30.9,25.6,0001.4,0020.69,0015.88,0015.09
2021-09-02 01:54:00,,0822.4,5.02,0.00,29.1,27.8,00.0,38.2,30.9,25.5,0001.3,0020.66,0015.88,0015.09
2021-09-02 01:55:00,,0822.3,4.99,0.00,29.2,28.0,00.0,38.2,31.0,25.6,0001.4,0020.48,0015.85,0015.07
2021-09-02 01:56:00,,0822.3,5.00,0.00,29.2,28.2,00.0,38.2,31.1,25.6,0001.3,0020.54,0015.83,0015.05
2021-09-02 01:57:00,,0822.2,5.00,0.00,29.3,28.3,00.0,38.2,31.1,25.5,0001.1,0021.08,0015.86,0015.05
2021-09-02 01:58:00,,0822.2,5.01,0.00,29.3,28.4,00.0,38.3,31.2,25.4,0001.1,0021.40,0015.85,0015.04
2021-09-02 01:59:00,,0822.2,5.00,0.00,29.4,28.5,00.0,38.3,31.2,25.4,0001.0,0021.30,0015.79,0015.02
